Time,TemperatureF,DewpointF,PressureIn,WindDirection,WindDirectionDegrees,WindSpeedMPH,WindSpeedGustMPH,Humidity,HourlyPrecipIn,Conditions,Clouds,dailyrainin,SolarRadiationWatts/m^2,SoftwareType,DateUTC
2013-09-05 00:00:00,60.4,53.2,29.93,ESE,113,0.0,0.0,77,0.00,,,0.00,0,Wunderground v.1.15,2013-09-05 07:00:00,
2013-09-05 00:10:00,60.1,53.6,29.92,ESE,113,0.0,0.0,79,0.00,,,0.00,0,Wunderground v.1.15,2013-09-05 07:10:00,
2013-09-05 00:20:00,59.8,53.3,29.93,ESE,113,0.0,0.0,79,0.00,,,0.00,0,Wunderground v.1.15,2013-09-05 07:20:00,
2013-09-05 00:30:00,59.5,53.0,29.93,ESE,113,0.0,0.0,79,0.00,,,0.00,0,Wunderground v.1.15,2013-09-05 07:30:00,
2013-09-05 00:40:00,59.5,53.0,29.93,ESE,113,0.0,0.0,79,0.00,,,0.00,0,Wunderground v.1.15,2013-09-05 07:40:00,
2013-09-05 00:50:00,59.3,53.1,29.92,ESE,113,0.0,0.0,80,0.00,,,0.00,0,Wunderground v.1.15,2013-09-05 07:50:00,
2013-09-05 01:00:00,59.2,53.0,29.93,ESE,113,0.0,0.0,80,0.00,,,0.00,0,Wunderground v.1.15,2013-09-05 08:00:00,
2013-09-05 01:10:00,58.9,52.7,29.93,ESE,113,0.0,0.0,80,0.00,,,0.00,0,Wunderground v.1.15,2013-09-05 08:10:00,
2013-09-05 01:15:00,58.7,52.9,29.93,ESE,113,0.0,0.0,81,0.00,,,0.00,0,Wunderground v.1.15,2013-09-05 08:15:00,
2013-09-05 01:20:00,58.6,52.8,29.93,ESE,113,0.0,0.0,81,0.00,,,0.00,0,Wunderground v.1.15,2013-09-05 08:20:00,
2013-09-05 01:30:00,58.6,52.8,29.92,ESE,113,0.0,0.0,81,0.00,,,0.00,0,Wunderground v.1.15,2013-09-05 08:30:00,
2013-09-05 01:35:00,58.7,52.9,29.92,ESE,113,0.0,0.0,81,0.00,,,0.00,0,Wunderground v.1.15,2013-09-05 08:35:00,
2013-09-05 01:45:00,58.7,52.9,29.91,ESE,113,0.0,0.0,81,0.00,,,0.00,0,Wunderground v.1.15,2013-09-05 08:45:00,
2013-09-05 01:55:00,59.0,52.8,29.91,ESE,114,0.0,1.0,80,0.00,,,0.00,0,Wunderground v.1.15,2013-09-05 08:55:00,
2013-09-05 02:00:00,59.8,53.3,29.91,NNW,344,0.0,0.0,79,0.00,,,0.00,0,Wunderground v.1.15,2013-09-05 09:00:00,
2013-09-05 02:10:00,61.5,54.2,29.91,NNW,344,0.0,0.0,77,0.00,,,0.00,0,Wunderground v.1.15,2013-09-05 09:10:00,
2013-09-05 02:20:00,62.9,54.5,29.91,NE,53,0.0,0.0,74,0.00,,,0.00,0,Wunderground v.1.15,2013-09-05 09:20:00,
2013-09-05 02:30:00,63.7,54.5,29.91,ENE,72,0.0,0.0,72,0.00,,,0.00,0,Wunderground v.1.15,2013-09-05 09:30:00,
2013-09-05 02:40:00,63.7,54.1,29.90,NNW,340,0.0,2.0,71,0.00,,,0.00,0,Wunderground v.1.15,2013-09-05 09:40:00,
2013-09-05 02:50:00,64.5,54.1,29.91,NNW,348,0.0,0.0,69,0.00,,,0.00,0,Wunderground v.1.15,2013-09-05 09:50:00,
2013-09-05 03:00:00,66.0,54.3,29.91,West,273,0.0,4.0,66,0.00,,,0.00,0,Wunderground v.1.15,2013-09-05 10:00:00,
2013-09-05 03:10:00,67.1,54.5,29.91,West,259,0.0,0.0,64,0.00,,,0.00,0,Wunderground v.1.15,2013-09-05 10:10:00,
2013-09-05 03:20:00,67.4,54.8,29.91,WSW,244,1.0,1.0,64,0.00,,,0.00,0,Wunderground v.1.15,2013-09-05 10:20:00,
2013-09-05 03:25:00,67.3,54.3,29.91,North,5,0.0,1.0,63,0.00,,,0.00,0,Wunderground v.1.15,2013-09-05 10:25:00,
2013-09-05 03:30:00,66.9,54.3,29.91,NNW,347,0.0,3.0,64,0.00,,,0.00,0,Wunderground v.1.15,2013-09-05 10:30:00,
2013-09-05 03:40:00,67.6,54.6,29.91,North,5,1.0,1.0,63,0.00,,,0.00,0,Wunderground v.1.15,2013-09-05 10:40:00,
2013-09-05 03:50:00,67.6,54.1,29.92,NE,49,0.0,0.0,62,0.00,,,0.00,0,Wunderground v.1.15,2013-09-05 10:50:00,
2013-09-05 03:55:00,67.3,54.3,29.92,NE,49,0.0,0.0,63,0.00,,,0.00,0,Wunderground v.1.15,2013-09-05 10:55:00,
2013-09-05 04:05:00,66.9,54.3,29.93,NE,49,0.0,0.0,64,0.00,,,0.00,0,Wunderground v.1.15,2013-09-05 11:05:00,
2013-09-05 04:15:00,66.4,54.7,29.92,NE,49,0.0,0.0,66,0.00,,,0.00,0,Wunderground v.1.15,2013-09-05 11:15:00,
2013-09-05 04:25:00,66.1,54.0,29.91,SW,234,0.0,1.0,65,0.00,,,0.00,0,Wunderground v.1.15,2013-09-05 11:25:00,
2013-09-05 04:30:00,66.8,54.7,29.91,NNW,348,1.0,1.0,65,0.00,,,0.00,0,Wunderground v.1.15,2013-09-05 11:30:00,
2013-09-05 04:40:00,68.1,54.6,29.90,North,5,1.0,1.0,62,0.00,,,0.00,0,Wunderground v.1.15,2013-09-05 11:40:00,
2013-09-05 04:45:00,68.4,54.9,29.90,North,360,1.0,1.0,62,0.00,,,0.00,0,Wunderground v.1.15,2013-09-05 11:45:00,
2013-09-05 04:50:00,68.8,54.8,29.90,South,178,1.0,1.0,61,0.00,,,0.00,0,Wunderground v.1.15,2013-09-05 11:50:00,
2013-09-05 05:00:00,68.8,54.8,29.90,NNW,331,0.0,0.0,61,0.00,,,0.00,0,Wunderground v.1.15,2013-09-05 12:00:00,
2013-09-05 05:10:00,68.4,54.9,29.90,NNW,331,0.0,0.0,62,0.00,,,0.00,0,Wunderground v.1.15,2013-09-05 12:10:00,
2013-09-05 05:20:00,67.6,54.6,29.92,East,79,0.0,0.0,63,0.00,,,0.00,0,Wunderground v.1.15,2013-09-05 12:20:00,
2013-09-05 05:30:00,66.9,54.3,29.93,East,79,0.0,0.0,64,0.00,,,0.00,0,Wunderground v.1.15,2013-09-05 12:30:00,
2013-09-05 05:35:00,66.6,54.5,29.93,East,79,0.0,0.0,65,0.00,,,0.00,0,Wunderground v.1.15,2013-09-05 12:35:00,
2013-09-05 05:45:00,66.0,54.3,29.93,East,79,0.0,0.0,66,0.00,,,0.00,0,Wunderground v.1.15,2013-09-05 12:45:00,
2013-09-05 05:55:00,65.5,54.2,29.93,East,79,0.0,0.0,67,0.00,,,0.00,0,Wunderground v.1.15,2013-09-05 12:55:00,
2013-09-05 06:00:00,65.2,54.4,29.93,East,79,0.0,0.0,68,0.00,,,0.00,0,Wunderground v.1.15,2013-09-05 13:00:00,
2013-09-05 06:10:00,64.7,54.3,29.94,East,79,0.0,0.0,69,0.00,,,0.00,0,Wunderground v.1.15,2013-09-05 13:10:00,
2013-09-05 06:15:00,64.5,54.5,29.94,East,79,0.0,0.0,70,0.00,,,0.00,0,Wunderground v.1.15,2013-09-05 13:15:00,
2013-09-05 06:20:00,64.3,54.3,29.94,East,79,0.0,0.0,70,0.00,,,0.00,0,Wunderground v.1.15,2013-09-05 13:20:00,
2013-09-05 06:30:00,64.0,54.8,29.94,East,79,0.0,0.0,72,0.00,,,0.00,0,Wunderground v.1.15,2013-09-05 13:30:00,
2013-09-05 06:40:00,63.5,55.1,29.95,East,79,0.0,0.0,74,0.00,,,0.00,0,Wunderground v.1.15,2013-09-05 13:40:00,
2013-09-05 06:50:00,63.1,55.4,29.95,East,79,0.0,0.0,76,0.00,,,0.00,7,Wunderground v.1.15,2013-09-05 13:50:00,
2013-09-05 06:55:00,62.7,55.0,29.95,East,79,0.0,0.0,76,0.00,,,0.00,11,Wunderground v.1.15,2013-09-05 13:55:00,
2013-09-05 07:05:00,62.7,55.0,29.97,East,79,0.0,0.0,76,0.00,,,0.00,9,Wunderground v.1.15,2013-09-05 14:05:00,
2013-09-05 07:10:00,62.9,55.2,29.97,East,79,0.0,0.0,76,0.00,,,0.00,9,Wunderground v.1.15,2013-09-05 14:10:00,
2013-09-05 07:20:00,62.9,54.5,29.99,East,79,0.0,0.0,74,0.00,,,0.00,5,Wunderground v.1.15,2013-09-05 14:20:00,
2013-09-05 07:25:00,62.9,54.5,29.98,East,79,0.0,0.0,74,0.00,,,0.00,0,Wunderground v.1.15,2013-09-05 14:25:00,
2013-09-05 07:35:00,62.6,55.3,29.98,East,79,0.0,0.0,77,0.00,,,0.00,9,Wunderground v.1.15,2013-09-05 14:35:00,
2013-09-05 07:45:00,62.0,56.1,29.98,East,79,0.0,0.0,81,0.00,,,0.00,11,Wunderground v.1.15,2013-09-05 14:45:00,
2013-09-05 07:55:00,61.3,56.4,29.98,East,79,0.0,0.0,84,0.00,,,0.00,18,Wunderground v.1.15,2013-09-05 14:55:00,
2013-09-05 08:05:00,61.2,56.3,29.98,East,79,0.0,0.0,84,0.00,,,0.00,25,Wunderground v.1.15,2013-09-05 15:05:00,
2013-09-05 08:15:00,61.3,56.4,29.98,East,79,0.0,0.0,84,0.00,,,0.00,14,Wunderground v.1.15,2013-09-05 15:15:00,
2013-09-05 08:25:00,61.6,57.4,29.98,East,79,0.0,0.0,86,0.22,,,0.02,23,Wunderground v.1.15,2013-09-05 15:25:00,
2013-09-05 08:35:00,61.6,57.7,29.97,East,79,0.0,0.0,87,0.07,,,0.03,42,Wunderground v.1.15,2013-09-05 15:35:00,
2013-09-05 08:45:00,61.8,58.2,29.97,East,79,0.0,0.0,88,0.00,,,0.03,46,Wunderground v.1.15,2013-09-05 15:45:00,
2013-09-05 08:55:00,62.0,58.4,29.97,East,79,0.0,0.0,88,0.00,,,0.03,58,Wunderground v.1.15,2013-09-05 15:55:00,
2013-09-05 09:05:00,62.3,59.0,29.97,East,79,0.0,0.0,89,0.00,,,0.03,81,Wunderground v.1.15,2013-09-05 16:05:00,
2013-09-05 09:10:00,62.6,59.3,29.98,East,79,0.0,0.0,89,0.00,,,0.03,91,Wunderground v.1.15,2013-09-05 16:10:00,
2013-09-05 09:15:00,62.6,59.0,29.98,East,79,0.0,0.0,88,0.00,,,0.03,97,Wunderground v.1.15,2013-09-05 16:15:00,
2013-09-05 09:25:00,63.4,60.1,29.98,East,79,0.0,0.0,89,0.00,,,0.03,188,Wunderground v.1.15,2013-09-05 16:25:00,
2013-09-05 09:35:00,64.0,60.1,29.97,East,79,0.0,0.0,87,0.00,,,0.03,158,Wunderground v.1.15,2013-09-05 16:35:00,
2013-09-05 09:40:00,64.7,60.4,29.97,East,79,0.0,0.0,86,0.00,,,0.03,146,Wunderground v.1.15,2013-09-05 16:40:00,
2013-09-05 09:45:00,65.0,60.4,29.97,East,79,0.0,0.0,85,0.00,,,0.03,148,Wunderground v.1.15,2013-09-05 16:45:00,
2013-09-05 09:55:00,66.0,60.7,29.96,East,79,0.0,0.0,83,0.00,,,0.03,279,Wunderground v.1.15,2013-09-05 16:55:00,
2013-09-05 10:00:00,66.4,60.4,29.96,East,79,0.0,0.0,81,0.00,,,0.03,496,Wunderground v.1.15,2013-09-05 17:00:00,
2013-09-05 10:10:00,68.3,59.3,29.96,East,79,0.0,0.0,73,0.00,,,0.03,448,Wunderground v.1.15,2013-09-05 17:10:00,
2013-09-05 10:15:00,69.4,60.8,29.95,East,79,0.0,0.0,74,0.00,,,0.03,438,Wunderground v.1.15,2013-09-05 17:15:00,
2013-09-05 10:25:00,70.4,59.3,29.95,East,79,0.0,0.0,68,0.00,,,0.03,369,Wunderground v.1.15,2013-09-05 17:25:00,
2013-09-05 10:30:00,70.8,59.3,29.95,East,79,0.0,0.0,67,0.00,,,0.03,197,Wunderground v.1.15,2013-09-05 17:30:00,
2013-09-05 10:40:00,71.5,59.5,29.94,East,79,0.0,0.0,66,0.00,,,0.03,197,Wunderground v.1.15,2013-09-05 17:40:00,
2013-09-05 10:45:00,72.0,58.7,29.94,East,79,0.0,0.0,63,0.00,,,0.03,234,Wunderground v.1.15,2013-09-05 17:45:00,
2013-09-05 10:55:00,72.5,57.4,29.94,East,79,0.0,0.0,59,0.00,,,0.03,287,Wunderground v.1.15,2013-09-05 17:55:00,
2013-09-05 11:05:00,73.3,57.6,29.94,East,79,0.0,0.0,58,0.00,,,0.03,343,Wunderground v.1.15,2013-09-05 18:05:00,
2013-09-05 11:10:00,73.9,57.7,29.94,East,79,0.0,0.0,57,0.00,,,0.03,239,Wunderground v.1.15,2013-09-05 18:10:00,
2013-09-05 11:20:00,74.7,56.9,29.93,East,79,0.0,0.0,54,0.00,,,0.03,230,Wunderground v.1.15,2013-09-05 18:20:00,
2013-09-05 11:30:00,75.4,57.6,29.93,East,79,0.0,0.0,54,0.00,,,0.03,227,Wunderground v.1.15,2013-09-05 18:30:00,
2013-09-05 11:40:00,76.0,56.6,29.92,East,79,0.0,1.0,51,0.00,,,0.03,202,Wunderground v.1.15,2013-09-05 18:40:00,
2013-09-05 11:50:00,76.5,57.0,29.92,East,79,0.0,0.0,51,0.00,,,0.03,199,Wunderground v.1.15,2013-09-05 18:50:00,
2013-09-05 12:00:00,77.0,57.5,29.92,East,79,0.0,0.0,51,0.00,,,0.03,186,Wunderground v.1.15,2013-09-05 19:00:00,
2013-09-05 12:05:00,77.0,56.9,29.92,East,79,0.0,0.0,50,0.00,,,0.03,174,Wunderground v.1.15,2013-09-05 19:05:00,
2013-09-05 12:15:00,76.8,57.3,29.92,East,79,0.0,0.0,51,0.00,,,0.03,176,Wunderground v.1.15,2013-09-05 19:15:00,
2013-09-05 12:25:00,76.7,58.3,29.91,East,79,0.0,0.0,53,0.00,,,0.03,204,Wunderground v.1.15,2013-09-05 19:25:00,
2013-09-05 12:35:00,77.0,59.1,29.91,East,89,0.0,0.0,54,0.00,,,0.03,229,Wunderground v.1.15,2013-09-05 19:35:00,
2013-09-05 12:40:00,77.2,59.3,29.91,East,89,0.0,0.0,54,0.00,,,0.03,223,Wunderground v.1.15,2013-09-05 19:40:00,
2013-09-05 12:50:00,77.7,57.6,29.90,East,92,0.0,0.0,50,0.00,,,0.03,186,Wunderground v.1.15,2013-09-05 19:50:00,
2013-09-05 13:00:00,77.9,56.6,29.90,SE,126,0.0,0.0,48,0.00,,,0.03,202,Wunderground v.1.15,2013-09-05 20:00:00,
2013-09-05 13:10:00,77.9,56.6,29.90,SE,125,0.0,0.0,48,0.00,,,0.03,220,Wunderground v.1.15,2013-09-05 20:10:00,
2013-09-05 13:20:00,77.9,55.5,29.90,SE,125,0.0,0.0,46,0.00,,,0.03,236,Wunderground v.1.15,2013-09-05 20:20:00,
2013-09-05 13:30:00,78.3,57.6,29.90,ESE,107,0.0,0.0,49,0.00,,,0.03,225,Wunderground v.1.15,2013-09-05 20:30:00,
2013-09-05 13:35:00,78.5,57.2,29.89,North,5,0.0,0.0,48,0.00,,,0.03,206,Wunderground v.1.15,2013-09-05 20:35:00,
2013-09-05 13:45:00,78.8,56.9,29.89,SE,124,0.0,0.0,47,0.00,,,0.03,269,Wunderground v.1.15,2013-09-05 20:45:00,
2013-09-05 13:55:00,79.8,57.8,29.88,ESE,105,0.0,0.0,47,0.00,,,0.03,257,Wunderground v.1.15,2013-09-05 20:55:00,
2013-09-05 14:05:00,80.5,57.8,29.86,ESE,104,0.0,1.0,46,0.00,,,0.03,260,Wunderground v.1.15,2013-09-05 21:05:00,
2013-09-05 14:10:00,81.1,57.1,29.86,ESE,119,1.0,1.0,44,0.00,,,0.03,248,Wunderground v.1.15,2013-09-05 21:10:00,
2013-09-05 14:20:00,81.1,57.1,29.86,ESE,120,0.0,0.0,44,0.00,,,0.03,251,Wunderground v.1.15,2013-09-05 21:20:00,
2013-09-05 14:25:00,81.6,58.2,29.85,ESE,119,0.0,1.0,45,0.00,,,0.03,195,Wunderground v.1.15,2013-09-05 21:25:00,
2013-09-05 14:35:00,82.6,57.2,29.85,ESE,113,1.0,3.0,42,0.00,,,0.03,202,Wunderground v.1.15,2013-09-05 21:35:00,
2013-09-05 14:45:00,82.8,58.0,29.85,SSE,155,1.0,1.0,43,0.00,,,0.03,113,Wunderground v.1.15,2013-09-05 21:45:00,
2013-09-05 14:55:00,82.6,57.8,29.84,SE,124,0.0,1.0,43,0.00,,,0.03,121,Wunderground v.1.15,2013-09-05 21:55:00,
2013-09-05 15:00:00,82.8,58.0,29.84,ESE,111,1.0,1.0,43,0.00,,,0.03,116,Wunderground v.1.15,2013-09-05 22:00:00,
2013-09-05 15:10:00,82.4,57.7,29.84,ESE,103,0.0,0.0,43,0.00,,,0.03,65,Wunderground v.1.15,2013-09-05 22:10:00,
2013-09-05 15:15:00,81.4,57.4,29.84,East,100,0.0,0.0,44,0.00,,,0.03,118,Wunderground v.1.15,2013-09-05 22:15:00,
2013-09-05 15:25:00,80.7,58.0,29.83,East,94,0.0,0.0,46,0.00,,,0.03,612,Wunderground v.1.15,2013-09-05 22:25:00,
2013-09-05 15:35:00,81.8,57.8,29.83,ESE,106,0.0,0.0,44,0.00,,,0.03,218,Wunderground v.1.15,2013-09-05 22:35:00,
2013-09-05 15:45:00,83.0,56.2,29.82,SE,136,0.0,1.0,40,0.00,,,0.03,227,Wunderground v.1.15,2013-09-05 22:45:00,
2013-09-05 15:55:00,84.3,52.9,29.82,ENE,76,0.0,1.0,34,0.00,,,0.03,619,Wunderground v.1.15,2013-09-05 22:55:00,
2013-09-05 16:05:00,84.9,52.6,29.80,ESE,113,1.0,1.0,33,0.00,,,0.03,575,Wunderground v.1.15,2013-09-05 23:05:00,
2013-09-05 16:10:00,84.9,52.6,29.80,ESE,120,0.0,0.0,33,0.00,,,0.03,554,Wunderground v.1.15,2013-09-05 23:10:00,
2013-09-05 16:15:00,85.1,53.6,29.80,SE,146,0.0,0.0,34,0.00,,,0.03,517,Wunderground v.1.15,2013-09-05 23:15:00,
2013-09-05 16:25:00,85.5,52.3,29.79,ESE,115,0.0,1.0,32,0.00,,,0.03,487,Wunderground v.1.15,2013-09-05 23:25:00,
2013-09-05 16:35:00,85.5,52.3,29.79,ESE,108,0.0,0.0,32,0.00,,,0.03,466,Wunderground v.1.15,2013-09-05 23:35:00,
2013-09-05 16:45:00,85.3,51.2,29.78,East,92,0.0,0.0,31,0.00,,,0.03,431,Wunderground v.1.15,2013-09-05 23:45:00,
2013-09-05 16:55:00,84.9,50.0,29.77,East,92,0.0,0.0,30,0.00,,,0.03,408,Wunderground v.1.15,2013-09-05 23:55:00,
2013-09-05 17:00:00,84.9,50.9,29.78,East,92,0.0,0.0,31,0.00,,,0.03,394,Wunderground v.1.15,2013-09-06 00:00:00,
2013-09-05 17:10:00,84.9,49.1,29.78,East,92,0.0,0.0,29,0.00,,,0.03,97,Wunderground v.1.15,2013-09-06 00:10:00,
2013-09-05 17:20:00,85.3,52.9,29.78,West,275,0.0,0.0,33,0.00,,,0.03,100,Wunderground v.1.15,2013-09-06 00:20:00,
2013-09-05 17:30:00,85.1,53.6,29.77,West,275,0.0,0.0,34,0.00,,,0.03,127,Wunderground v.1.15,2013-09-06 00:30:00,
2013-09-05 17:40:00,84.7,52.4,29.77,West,275,0.0,0.0,33,0.00,,,0.03,116,Wunderground v.1.15,2013-09-06 00:40:00,
2013-09-05 17:50:00,84.0,51.8,29.77,West,275,0.0,0.0,33,0.00,,,0.03,79,Wunderground v.1.15,2013-09-06 00:50:00,
2013-09-05 17:55:00,83.6,55.3,29.77,West,275,0.0,0.0,38,0.00,,,0.03,67,Wunderground v.1.15,2013-09-06 00:55:00,
2013-09-05 18:00:00,82.6,55.8,29.77,West,275,0.0,0.0,40,0.00,,,0.03,84,Wunderground v.1.15,2013-09-06 01:00:00,
2013-09-05 18:05:00,81.8,57.1,29.78,West,275,0.0,0.0,43,0.00,,,0.03,93,Wunderground v.1.15,2013-09-06 01:05:00,
2013-09-05 18:15:00,80.5,57.8,29.77,West,275,0.0,0.0,46,0.00,,,0.03,56,Wunderground v.1.15,2013-09-06 01:15:00,
2013-09-05 18:20:00,79.9,56.0,29.78,West,275,0.0,0.0,44,0.00,,,0.03,62,Wunderground v.1.15,2013-09-06 01:20:00,
2013-09-05 18:30:00,79.0,55.2,29.78,West,263,0.0,0.0,44,0.00,,,0.03,51,Wunderground v.1.15,2013-09-06 01:30:00,
2013-09-05 18:35:00,79.0,57.0,29.78,West,263,0.0,0.0,47,0.00,,,0.03,37,Wunderground v.1.15,2013-09-06 01:35:00,
2013-09-05 18:45:00,78.6,56.1,29.78,West,263,0.0,0.0,46,0.00,,,0.03,26,Wunderground v.1.15,2013-09-06 01:45:00,
2013-09-05 18:55:00,78.1,56.8,29.80,WSW,257,0.0,0.0,48,0.00,,,0.03,18,Wunderground v.1.15,2013-09-06 01:55:00,
2013-09-05 19:05:00,77.7,55.3,29.80,WNW,296,1.0,1.0,46,0.00,,,0.03,14,Wunderground v.1.15,2013-09-06 02:05:00,
2013-09-05 19:15:00,77.4,56.2,29.80,West,261,2.0,3.0,48,0.00,,,0.03,7,Wunderground v.1.15,2013-09-06 02:15:00,
2013-09-05 19:20:00,77.0,55.8,29.80,WSW,254,1.0,1.0,48,0.00,,,0.03,0,Wunderground v.1.15,2013-09-06 02:20:00,
2013-09-05 19:30:00,76.1,56.1,29.81,NNW,344,2.0,2.0,50,0.00,,,0.03,0,Wunderground v.1.15,2013-09-06 02:30:00,
2013-09-05 19:40:00,75.4,56.0,29.81,SW,225,1.0,2.0,51,0.00,,,0.03,0,Wunderground v.1.15,2013-09-06 02:40:00,
2013-09-05 19:45:00,75.3,56.5,29.81,SSW,208,2.0,2.0,52,0.00,,,0.03,0,Wunderground v.1.15,2013-09-06 02:45:00,
2013-09-05 19:55:00,74.9,56.1,29.82,WSW,258,2.0,2.0,52,0.00,,,0.03,0,Wunderground v.1.15,2013-09-06 02:55:00,
2013-09-05 20:00:00,74.7,56.4,29.82,WSW,250,2.0,2.0,53,0.00,,,0.03,0,Wunderground v.1.15,2013-09-06 03:00:00,
2013-09-05 20:05:00,74.6,56.3,29.82,West,281,1.0,4.0,53,0.00,,,0.03,0,Wunderground v.1.15,2013-09-06 03:05:00,
2013-09-05 20:15:00,74.6,56.9,29.82,NNW,339,2.0,2.0,54,0.00,,,0.03,0,Wunderground v.1.15,2013-09-06 03:15:00,
2013-09-05 20:25:00,74.2,56.0,29.82,NNW,343,2.0,2.0,53,0.00,,,0.03,0,Wunderground v.1.15,2013-09-06 03:25:00,
2013-09-05 20:35:00,73.9,56.2,29.82,WSW,248,1.0,2.0,54,0.00,,,0.03,0,Wunderground v.1.15,2013-09-06 03:35:00,
2013-09-05 20:40:00,73.7,56.0,29.82,WNW,287,1.0,1.0,54,0.00,,,0.03,0,Wunderground v.1.15,2013-09-06 03:40:00,
2013-09-05 20:50:00,73.5,55.8,29.81,WSW,258,1.0,4.0,54,0.00,,,0.03,0,Wunderground v.1.15,2013-09-06 03:50:00,
2013-09-05 21:00:00,73.2,56.1,29.81,WSW,258,2.0,2.0,55,0.00,,,0.03,0,Wunderground v.1.15,2013-09-06 04:00:00,
2013-09-05 21:05:00,73.0,56.4,29.80,SW,217,2.0,2.0,56,0.00,,,0.03,0,Wunderground v.1.15,2013-09-06 04:05:00,
2013-09-05 21:10:00,72.5,56.4,29.80,SSW,202,2.0,7.0,57,0.00,,,0.03,0,Wunderground v.1.15,2013-09-06 04:10:00,
2013-09-05 21:20:00,72.0,56.4,29.81,SW,223,2.0,3.0,58,0.00,,,0.03,0,Wunderground v.1.15,2013-09-06 04:20:00,
2013-09-05 21:30:00,71.5,56.4,29.80,WNW,298,2.0,2.0,59,0.00,,,0.03,0,Wunderground v.1.15,2013-09-06 04:30:00,
2013-09-05 21:35:00,71.5,56.4,29.80,WSW,240,2.0,3.0,59,0.00,,,0.03,0,Wunderground v.1.15,2013-09-06 04:35:00,
2013-09-05 21:40:00,71.5,56.4,29.80,NNE,14,2.0,2.0,59,0.00,,,0.03,0,Wunderground v.1.15,2013-09-06 04:40:00,
2013-09-05 21:50:00,71.6,56.0,29.80,NNW,339,2.0,6.0,58,0.00,,,0.03,0,Wunderground v.1.15,2013-09-06 04:50:00,
2013-09-05 22:00:00,72.0,55.9,29.80,SW,233,2.0,2.0,57,0.00,,,0.03,0,Wunderground v.1.15,2013-09-06 05:00:00,
2013-09-05 22:05:00,72.1,55.0,29.79,NNW,336,2.0,2.0,55,0.00,,,0.03,0,Wunderground v.1.15,2013-09-06 05:05:00,
2013-09-05 22:15:00,72.5,55.4,29.79,SW,232,1.0,5.0,55,0.00,,,0.03,0,Wunderground v.1.15,2013-09-06 05:15:00,
2013-09-05 22:25:00,69.6,59.8,29.78,NW,325,1.0,1.0,71,0.16,,,0.12,0,Wunderground v.1.15,2013-09-06 05:25:00,
2013-09-05 22:35:00,66.3,59.9,29.80,West,272,1.0,1.0,80,0.04,,,0.12,0,Wunderground v.1.15,2013-09-06 05:35:00,
2013-09-05 22:45:00,65.3,60.0,29.80,West,275,0.0,0.0,83,0.04,,,0.13,0,Wunderground v.1.15,2013-09-06 05:45:00,
2013-09-05 22:55:00,64.7,60.4,29.81,West,275,0.0,0.0,86,0.00,,,0.13,0,Wunderground v.1.15,2013-09-06 05:55:00,
2013-09-05 23:00:00,64.5,60.2,29.81,West,275,0.0,0.0,86,0.00,,,0.13,0,Wunderground v.1.15,2013-09-06 06:00:00,
2013-09-05 23:10:00,64.3,60.7,29.80,West,275,0.0,0.0,88,0.13,,,0.15,0,Wunderground v.1.15,2013-09-06 06:10:00,
2013-09-05 23:20:00,64.2,60.6,29.80,West,275,0.0,0.0,88,0.05,,,0.15,0,Wunderground v.1.15,2013-09-06 06:20:00,
2013-09-05 23:30:00,64.2,60.6,29.83,SW,222,0.0,0.0,88,0.05,,,0.16,0,Wunderground v.1.15,2013-09-06 06:30:00,
2013-09-05 23:35:00,64.0,60.4,29.84,ESE,123,0.0,0.0,88,0.04,,,0.16,0,Wunderground v.1.15,2013-09-06 06:35:00,
2013-09-05 23:40:00,63.9,60.3,29.85,East,99,0.0,1.0,88,0.21,,,0.19,0,Wunderground v.1.15,2013-09-06 06:40:00,
2013-09-05 23:45:00,63.7,60.1,29.86,ESE,111,1.0,1.0,88,2.81,,,0.36,0,Wunderground v.1.15,2013-09-06 06:45:00,
2013-09-05 23:55:00,63.2,59.9,29.86,ESE,113,0.0,1.0,89,0.09,,,0.46,0,Wunderground v.1.15,2013-09-06 06:55:00,